Time,TemperatureF,DewpointF,PressureIn,WindDirection,WindDirectionDegrees,WindSpeedMPH,WindSpeedGustMPH,Humidity,HourlyPrecipIn,Conditions,Clouds,dailyrainin,SoftwareType,DateUTC
2013-01-11 00:03:00,44.2,34.3,30.25,East,90,4.2,-999.0,68,-99.99,,,0.00,Acu-Link.com,2013-01-11 05:03:00,
2013-01-11 00:18:00,44.6,34.7,30.25,ESE,112,3.7,-999.0,68,-99.99,,,0.00,Acu-Link.com,2013-01-11 05:18:00,
2013-01-11 00:34:00,44.6,34.0,30.25,East,90,8.9,-999.0,66,-99.99,,,0.00,Acu-Link.com,2013-01-11 05:34:00,
2013-01-11 00:49:00,44.6,33.6,30.24,East,90,6.3,-999.0,65,-99.99,,,0.00,Acu-Link.com,2013-01-11 05:49:00,
2013-01-11 01:04:00,44.8,32.2,30.24,ESE,112,4.7,-999.0,61,-99.99,,,0.00,Acu-Link.com,2013-01-11 06:04:00,
2013-01-11 01:19:00,44.8,30.9,30.24,East,90,5.3,-999.0,58,-99.99,,,0.00,Acu-Link.com,2013-01-11 06:19:00,
2013-01-11 01:34:00,44.6,30.7,30.23,ENE,67,5.8,-999.0,58,-99.99,,,0.00,Acu-Link.com,2013-01-11 06:34:00,
2013-01-11 01:50:00,44.6,29.9,30.23,East,90,6.3,-999.0,56,-99.99,,,0.00,Acu-Link.com,2013-01-11 06:50:00,
2013-01-11 02:05:00,44.4,30.6,30.24,ESE,112,5.8,-999.0,58,-99.99,,,0.00,Acu-Link.com,2013-01-11 07:05:00,
2013-01-11 02:20:00,44.4,31.0,30.23,East,90,11.4,-999.0,59,-99.99,,,0.00,Acu-Link.com,2013-01-11 07:20:00,
2013-01-11 02:36:00,44.2,31.2,30.23,ESE,112,11.4,-999.0,60,-99.99,,,0.00,Acu-Link.com,2013-01-11 07:36:00,
2013-01-11 02:51:00,43.9,31.7,30.23,East,90,6.8,-999.0,62,-99.99,,,0.00,Acu-Link.com,2013-01-11 07:51:00,
2013-01-11 03:06:00,42.6,33.2,30.23,East,90,7.8,-999.0,69,-99.99,,,0.00,Acu-Link.com,2013-01-11 08:06:00,
2013-01-11 03:21:00,40.3,35.9,30.22,East,90,6.8,-999.0,84,-99.99,,,0.00,Acu-Link.com,2013-01-11 08:21:00,
2013-01-11 03:36:00,40.1,35.4,30.21,ESE,112,7.3,-999.0,83,-99.99,,,0.00,Acu-Link.com,2013-01-11 08:36:00,
2013-01-11 03:51:00,40.1,34.7,30.20,East,90,3.7,-999.0,81,-99.99,,,0.00,Acu-Link.com,2013-01-11 08:51:00,
2013-01-11 04:11:00,40.5,34.5,30.20,East,90,14.5,-999.0,79,-99.99,,,0.00,Acu-Link.com,2013-01-11 09:11:00,
2013-01-11 04:26:00,39.7,35.6,30.19,ESE,112,7.8,-999.0,85,-99.99,,,0.00,Acu-Link.com,2013-01-11 09:26:00,
2013-01-11 04:41:00,38.5,35.8,30.17,East,90,8.3,-999.0,90,-99.99,,,0.00,Acu-Link.com,2013-01-11 09:41:00,
2013-01-11 04:56:00,38.3,35.9,30.17,East,90,6.8,-999.0,91,-99.99,,,0.00,Acu-Link.com,2013-01-11 09:56:00,
2013-01-11 05:12:00,37.9,35.8,30.17,ESE,112,8.3,-999.0,92,-99.99,,,0.00,Acu-Link.com,2013-01-11 10:12:00,
2013-01-11 05:27:00,37.4,35.8,30.19,East,90,7.3,-999.0,94,-99.99,,,0.00,Acu-Link.com,2013-01-11 10:27:00,
2013-01-11 05:42:00,37.0,36.0,30.18,East,90,6.3,-999.0,96,-99.99,,,0.00,Acu-Link.com,2013-01-11 10:42:00,
2013-01-11 05:57:00,36.9,36.4,30.16,ENE,67,7.8,-999.0,98,-99.99,,,0.00,Acu-Link.com,2013-01-11 10:57:00,
2013-01-11 06:13:00,36.9,36.6,30.18,East,90,5.3,-999.0,99,-99.99,,,0.01,Acu-Link.com,2013-01-11 11:13:00,
2013-01-11 06:28:00,36.9,36.6,30.18,NE,45,3.7,-999.0,99,-99.99,,,0.01,Acu-Link.com,2013-01-11 11:28:00,
2013-01-11 06:43:00,36.9,36.6,30.19,NE,45,2.2,-999.0,99,-99.99,,,0.02,Acu-Link.com,2013-01-11 11:43:00,
2013-01-11 06:59:00,36.9,36.6,30.18,East,90,4.7,-999.0,99,-99.99,,,0.03,Acu-Link.com,2013-01-11 11:59:00,
2013-01-11 07:14:00,36.9,36.6,30.18,East,90,6.8,-999.0,99,-99.99,,,0.03,Acu-Link.com,2013-01-11 12:14:00,
2013-01-11 07:29:00,36.7,36.4,30.16,East,90,11.4,-999.0,99,-99.99,,,0.03,Acu-Link.com,2013-01-11 12:29:00,
2013-01-11 07:44:00,36.5,36.2,30.18,ENE,67,5.8,-999.0,99,-99.99,,,0.03,Acu-Link.com,2013-01-11 12:44:00,
2013-01-11 08:00:00,36.3,36.0,30.18,East,90,6.3,-999.0,99,-99.99,,,0.03,Acu-Link.com,2013-01-11 13:00:00,
2013-01-11 08:15:00,35.8,35.5,30.18,East,90,7.8,-999.0,99,-99.99,,,0.04,Acu-Link.com,2013-01-11 13:15:00,
2013-01-11 08:30:00,35.6,35.3,30.17,ESE,112,10.9,-999.0,99,-99.99,,,0.04,Acu-Link.com,2013-01-11 13:30:00,
2013-01-11 08:45:00,35.6,35.3,30.16,East,90,7.3,-999.0,99,-99.99,,,0.04,Acu-Link.com,2013-01-11 13:45:00,
2013-01-11 09:01:00,35.6,35.3,30.17,East,90,7.3,-999.0,99,-99.99,,,0.04,Acu-Link.com,2013-01-11 14:01:00,
2013-01-11 09:16:00,35.6,35.3,30.16,East,90,4.7,-999.0,99,-99.99,,,0.04,Acu-Link.com,2013-01-11 14:16:00,
2013-01-11 09:31:00,36.0,35.7,30.16,East,90,4.7,-999.0,99,-99.99,,,0.04,Acu-Link.com,2013-01-11 14:31:00,
2013-01-11 09:46:00,36.1,35.8,30.16,East,90,5.3,-999.0,99,-99.99,,,0.05,Acu-Link.com,2013-01-11 14:46:00,
2013-01-11 10:02:00,36.7,36.4,30.14,ESE,112,4.2,-999.0,99,-99.99,,,0.05,Acu-Link.com,2013-01-11 15:02:00,
2013-01-11 10:17:00,37.0,36.7,30.14,East,90,6.3,-999.0,99,-99.99,,,0.05,Acu-Link.com,2013-01-11 15:17:00,
2013-01-11 10:32:00,37.0,36.7,30.14,East,90,5.3,-999.0,99,-99.99,,,0.05,Acu-Link.com,2013-01-11 15:32:00,
2013-01-11 10:48:00,37.2,36.9,30.13,East,90,3.2,-999.0,99,-99.99,,,0.05,Acu-Link.com,2013-01-11 15:48:00,
2013-01-11 11:03:00,37.2,36.9,30.11,ENE,67,3.2,-999.0,99,-99.99,,,0.05,Acu-Link.com,2013-01-11 16:03:00,
2013-01-11 11:18:00,38.1,37.8,30.10,ENE,67,2.7,-999.0,99,-99.99,,,0.05,Acu-Link.com,2013-01-11 16:18:00,
2013-01-11 11:33:00,38.3,38.0,30.10,ESE,112,3.7,-999.0,99,-99.99,,,0.05,Acu-Link.com,2013-01-11 16:33:00,
2013-01-11 11:49:00,38.7,38.4,30.08,ESE,112,4.2,-999.0,99,-99.99,,,0.05,Acu-Link.com,2013-01-11 16:49:00,
2013-01-11 12:04:00,39.7,39.4,30.06,ENE,67,2.7,-999.0,99,-99.99,,,0.06,Acu-Link.com,2013-01-11 17:04:00,
2013-01-11 12:19:00,40.5,40.2,30.05,East,90,3.7,-999.0,99,-99.99,,,0.06,Acu-Link.com,2013-01-11 17:19:00,
2013-01-11 12:35:00,41.2,40.9,30.05,ESE,112,5.8,-999.0,99,-99.99,,,0.06,Acu-Link.com,2013-01-11 17:35:00,
2013-01-11 12:50:00,42.4,42.1,30.02,East,90,2.2,-999.0,99,-99.99,,,0.06,Acu-Link.com,2013-01-11 17:50:00,
2013-01-11 13:05:00,44.1,43.8,30.02,SSE,157,2.2,-999.0,99,-99.99,,,0.06,Acu-Link.com,2013-01-11 18:05:00,
2013-01-11 13:21:00,46.6,46.3,30.01,SSW,202,5.8,-999.0,99,-99.99,,,0.06,Acu-Link.com,2013-01-11 18:21:00,
2013-01-11 13:36:00,46.8,46.5,30.01,SSW,202,4.7,-999.0,99,-99.99,,,0.06,Acu-Link.com,2013-01-11 18:36:00,
2013-01-11 13:51:00,47.5,47.2,30.00,SW,225,6.8,-999.0,99,-99.99,,,0.06,Acu-Link.com,2013-01-11 18:51:00,
2013-01-11 14:06:00,48.0,47.7,30.00,SSW,202,6.8,-999.0,99,-99.99,,,0.06,Acu-Link.com,2013-01-11 19:06:00,
2013-01-11 14:22:00,48.7,48.4,29.99,SW,225,8.3,-999.0,99,-99.99,,,0.06,Acu-Link.com,2013-01-11 19:22:00,
2013-01-11 14:37:00,49.6,49.3,29.98,SW,225,6.3,-999.0,99,-99.99,,,0.06,Acu-Link.com,2013-01-11 19:37:00,
2013-01-11 15:07:00,50.7,50.4,29.97,SSW,202,7.3,-999.0,99,-99.99,,,0.06,Acu-Link.com,2013-01-11 20:07:00,
2013-01-11 15:23:00,50.9,50.4,29.97,SSW,202,7.8,-999.0,98,-99.99,,,0.06,Acu-Link.com,2013-01-11 20:23:00,
2013-01-11 15:38:00,52.2,51.4,29.97,SSW,202,6.3,-999.0,97,-99.99,,,0.06,Acu-Link.com,2013-01-11 20:38:00,
2013-01-11 15:53:00,52.7,51.9,29.97,South,180,4.7,-999.0,97,-99.99,,,0.06,Acu-Link.com,2013-01-11 20:53:00,
2013-01-11 16:09:00,54.7,53.0,29.96,SSW,202,15.0,-999.0,94,-99.99,,,0.06,Acu-Link.com,2013-01-11 21:09:00,
2013-01-11 16:24:00,53.6,52.2,29.97,SW,225,16.1,-999.0,95,-99.99,,,0.06,Acu-Link.com,2013-01-11 21:24:00,
2013-01-11 16:40:00,53.6,52.2,29.97,SW,225,14.0,-999.0,95,-99.99,,,0.06,Acu-Link.com,2013-01-11 21:40:00,
2013-01-11 16:55:00,54.0,52.6,29.96,SSW,202,9.9,-999.0,95,-99.99,,,0.06,Acu-Link.com,2013-01-11 21:55:00,
2013-01-11 17:10:00,53.8,52.4,29.96,West,270,11.9,-999.0,95,-99.99,,,0.06,Acu-Link.com,2013-01-11 22:10:00,
2013-01-11 17:25:00,53.8,52.4,29.97,WSW,247,14.0,-999.0,95,-99.99,,,0.06,Acu-Link.com,2013-01-11 22:25:00,
2013-01-11 17:41:00,53.6,52.2,29.97,WSW,247,8.3,-999.0,95,-99.99,,,0.06,Acu-Link.com,2013-01-11 22:41:00,
2013-01-11 17:56:00,53.6,52.2,29.96,SSW,202,12.5,-999.0,95,-99.99,,,0.06,Acu-Link.com,2013-01-11 22:56:00,
2013-01-11 18:11:00,53.6,52.2,29.96,SW,225,6.8,-999.0,95,-99.99,,,0.06,Acu-Link.com,2013-01-11 23:11:00,
2013-01-11 18:27:00,53.4,52.0,29.96,SSW,202,10.4,-999.0,95,-99.99,,,0.06,Acu-Link.com,2013-01-11 23:27:00,
2013-01-11 18:42:00,53.4,52.0,29.96,SW,225,7.3,-999.0,95,-99.99,,,0.06,Acu-Link.com,2013-01-11 23:42:00,
2013-01-11 18:57:00,53.2,51.8,29.97,SW,225,7.8,-999.0,95,-99.99,,,0.06,Acu-Link.com,2013-01-11 23:57:00,
2013-01-11 19:13:00,53.1,51.7,29.97,West,270,6.8,-999.0,95,-99.99,,,0.06,Acu-Link.com,2013-01-12 00:13:00,
2013-01-11 19:28:00,52.9,51.5,29.97,WSW,247,11.4,-999.0,95,-99.99,,,0.06,Acu-Link.com,2013-01-12 00:28:00,
2013-01-11 19:43:00,52.7,51.6,29.98,WSW,247,5.8,-999.0,96,-99.99,,,0.06,Acu-Link.com,2013-01-12 00:43:00,
2013-01-11 19:58:00,51.8,51.0,29.97,SW,225,3.7,-999.0,97,-99.99,,,0.06,Acu-Link.com,2013-01-12 00:58:00,
2013-01-11 20:13:00,51.3,51.0,29.97,SW,225,4.2,-999.0,99,-99.99,,,0.06,Acu-Link.com,2013-01-12 01:13:00,
2013-01-11 20:29:00,50.9,50.6,29.97,SSW,202,4.2,-999.0,99,-99.99,,,0.06,Acu-Link.com,2013-01-12 01:29:00,
2013-01-11 20:44:00,50.7,50.4,29.98,WSW,247,2.7,-999.0,99,-99.99,,,0.06,Acu-Link.com,2013-01-12 01:44:00,
2013-01-11 20:59:00,50.4,50.1,29.97,WSW,247,2.2,-999.0,99,-99.99,,,0.06,Acu-Link.com,2013-01-12 01:59:00,
2013-01-11 21:15:00,49.6,49.3,29.97,SW,225,3.2,-999.0,99,-99.99,,,0.06,Acu-Link.com,2013-01-12 02:15:00,
2013-01-11 21:30:00,48.2,47.9,29.97,WSW,247,3.2,-999.0,99,-99.99,,,0.06,Acu-Link.com,2013-01-12 02:30:00,
2013-01-11 21:46:00,49.3,49.0,29.97,SW,225,5.3,-999.0,99,-99.99,,,0.06,Acu-Link.com,2013-01-12 02:46:00,
2013-01-11 22:01:00,49.8,49.5,29.96,SW,225,5.3,-999.0,99,-99.99,,,0.06,Acu-Link.com,2013-01-12 03:01:00,
2013-01-11 22:16:00,49.8,49.5,29.97,WSW,247,4.7,-999.0,99,-99.99,,,0.06,Acu-Link.com,2013-01-12 03:16:00,
2013-01-11 22:32:00,50.2,49.9,29.97,West,270,4.2,-999.0,99,-99.99,,,0.06,Acu-Link.com,2013-01-12 03:32:00,
2013-01-11 22:47:00,50.2,49.9,29.98,WSW,247,3.7,-999.0,99,-99.99,,,0.06,Acu-Link.com,2013-01-12 03:47:00,
2013-01-11 23:02:00,50.4,50.1,29.97,West,270,3.7,-999.0,99,-99.99,,,0.06,Acu-Link.com,2013-01-12 04:02:00,
2013-01-11 23:18:00,50.4,50.1,29.97,WSW,247,3.2,-999.0,99,-99.99,,,0.06,Acu-Link.com,2013-01-12 04:18:00,
2013-01-11 23:33:00,49.8,49.5,29.97,West,270,3.2,-999.0,99,-99.99,,,0.06,Acu-Link.com,2013-01-12 04:33:00,
2013-01-11 23:48:00,49.5,49.2,29.97,West,270,3.2,-999.0,99,-99.99,,,0.06,Acu-Link.com,2013-01-12 04:48:00,